Regional Weather Roundup
Issued by NWS

Home | Current Version | Previous Version | Text Only | Print | Product List | Glossary On
Versions: 1 2 3 4 5 6 7 8 9 10 11 12 13 14 15 16 17 18 19 20 21 22 23 24 25 26 27 28 29 30 31 32 33 34 35 36 37 38 39 40 41 42 43 44 45 46 47 48 49 50
000
ASUS43 KBIS 231410
RWRND

NORTH DAKOTA REGIONAL WEATHER ROUNDUP
NATIONAL WEATHER SERVICE BISMARCK ND
800 AM CST MON JAN 23 2017

NOTE: "FAIR" INDICATES FEW OR NO CLOUDS BELOW 12,000 FEET WITH NO
SIGNIFICANT WEATHER AND/OR OBSTRUCTIONS TO VISIBILITY.


NDZ001>003-009>011-017-231500-
NORTHWEST NORTH DAKOTA

CITY           SKY/WX    TMP DP  RH WIND       PRES   REMARKS
WILLISTON      CLOUDY    25  22  88 N7        29.77R WCI  17
MINOT          CLOUDY    27  21  78 NW8       29.75S WCI  19
MINOT AFB      CLOUDY    25  20  83 W7        29.75S WCI  17
$$

NDZ018>021-031>035-040>046-231500-
SOUTHWEST NORTH DAKOTA

CITY           SKY/WX    TMP DP  RH WIND       PRES   REMARKS
BISMARCK       CLOUDY    29  23  78 W3        29.81S
DICKINSON      CLOUDY    23  19  85 SE3       29.73S
GARRISON         N/A     27  23  85 W6        29.76S
HETTINGER ARPT FOG       22  21  96 E8        29.76R VSB 1/4 WCI  12
$$

NDZ004>008-012>016-024-026-027-054-231500-
NORTHEAST NORTH DAKOTA

CITY           SKY/WX    TMP DP  RH WIND       PRES   REMARKS
GRAND FORKS    CLOUDY    32  25  75 NW7       29.77S
GRND FRKS AFB  CLOUDY    30  24  77 NW9       29.77S
DEVILS LAKE    CLOUDY    27  22  81 W10       29.76S WCI  17
$$

NDZ022-023-025-028>030-036>039-047>053-231500-
SOUTHEAST NORTH DAKOTA

CITY           SKY/WX    TMP DP  RH WIND       PRES   REMARKS
FARGO          CLOUDY    34  28  79 SW5       29.79F
JAMESTOWN      CLOUDY    29  24  82 W6        29.78R
$$





USA.gov is the U.S. government's official web portal to all federal, state and local government web resources and services.